timestamp,surface_pressure_avg,surface_temp_avg,battery_voltage,lat,long
2024-03-11 00:09:00+00:00,366.1796,0.5,11.53,47.84626,-54.09684
2024-03-11 00:19:00+00:00,368.5913,0.5,11.61,47.84626,-54.09684
2024-03-11 00:29:00+00:00,372.7078,0.5,11.61,47.84626,-54.09684
2024-03-11 00:39:00+00:00,371.3695,0.5,11.61,47.84626,-54.09684
2024-03-11 00:49:00+00:00,363.4629,0.5,11.61,47.84626,-54.09684
2024-03-11 00:59:00+00:00,357.3779,0.5,11.61,47.84626,-54.09684
2024-03-11 01:09:00+00:00,351.3962,0.5,11.61,47.84626,-54.09684
2024-03-11 01:19:00+00:00,343.6913,0.5,11.53,47.84626,-54.09684
2024-03-11 01:29:00+00:00,338.9213,0.5,11.53,47.84626,-54.09684
2024-03-11 01:39:00+00:00,335.6613,0.5,11.53,47.84626,-54.09684
2024-03-11 01:49:00+00:00,331.7612,0.5,11.53,47.84626,-54.09684
2024-03-11 01:59:00+00:00,325.3179,0.5,11.53,47.84626,-54.09684
2024-03-11 02:09:00+00:00,321.5731,0.5,11.53,47.84626,-54.09684
2024-03-11 02:19:00+00:00,322.1895,0.5,11.53,47.84626,-54.09684
2024-03-11 02:29:00+00:00,314.8297,0.5,11.53,47.84626,-54.09684
2024-03-11 02:39:00+00:00,298.7313,0.5,11.53,47.84626,-54.09684
2024-03-11 02:49:00+00:00,283.923,0.5,11.53,47.84626,-54.09684
2024-03-11 02:59:00+00:00,274.1348,0.5,11.53,47.84626,-54.09684
2024-03-11 03:09:00+00:00,255.1714,0.5,11.53,47.84626,-54.09684
2024-03-11 03:19:01+00:00,233.7931,0.5,11.53,47.84626,-54.09684
2024-03-11 03:29:01+00:00,224.1765,0.5,11.53,47.84626,-54.09684
2024-03-11 03:39:01+00:00,221.6348,0.5,11.53,47.84626,-54.09684
2024-03-11 03:49:01+00:00,214.1231,0.5,11.53,47.84626,-54.09684
2024-03-11 03:59:01+00:00,205.4198,0.5,11.53,47.84626,-54.09684
2024-03-11 04:09:01+00:00,200.8514,0.5,11.53,47.84626,-54.09684
2024-03-11 04:19:00+00:00,191.7881,0.5,11.53,47.84626,-54.09684
2024-03-11 04:29:00+00:00,179.8315,0.5,11.53,47.84626,-54.09684
2024-03-11 04:39:00+00:00,178.3282,0.5,11.53,47.84626,-54.09684
2024-03-11 04:49:00+00:00,172.3515,0.5,11.53,47.84626,-54.09684
2024-03-11 04:59:00+00:00,158.0298,0.49,11.53,47.84626,-54.09684
2024-03-11 05:09:00+00:00,154.2249,0.47,11.53,47.84626,-54.09684
2024-03-11 05:19:00+00:00,154.0898,0.49,11.53,47.84626,-54.09684
2024-03-11 05:29:00+00:00,147.4883,0.5,11.53,47.84626,-54.09684
2024-03-11 05:39:00+00:00,149.3048,0.5,11.53,47.84626,-54.09684
2024-03-11 05:49:00+00:00,158.8748,0.5,11.53,47.84626,-54.09684
2024-03-11 05:59:00+00:00,157.4849,0.5,11.53,47.84626,-54.09684
2024-03-11 06:09:00+00:00,154.6431,0.44,11.53,47.84626,-54.09684
2024-03-11 06:19:00+00:00,160.1531,0.4,11.53,47.84626,-54.09684
2024-03-11 06:29:00+00:00,163.0865,0.4,11.53,47.84626,-54.09684
2024-03-11 06:39:00+00:00,162.1798,0.39,11.53,47.84626,-54.09684
2024-03-11 06:49:00+00:00,170.2998,0.38,11.53,47.84626,-54.09684
2024-03-11 06:59:00+00:00,176.0465,0.39,11.53,47.84626,-54.09684
2024-03-11 07:09:00+00:00,173.0981,0.38,11.53,47.84626,-54.09684
2024-03-11 07:19:00+00:00,176.5048,0.37,11.53,47.84626,-54.09684
2024-03-11 07:29:00+00:00,185.0865,0.39,11.53,47.84626,-54.09684
2024-03-11 07:39:00+00:00,191.4048,0.4,11.53,47.84626,-54.09684
2024-03-11 07:49:00+00:00,190.3198,0.4,11.53,47.84626,-54.09684
2024-03-11 07:59:00+00:00,188.9265,0.4,11.53,47.84626,-54.09684
2024-03-11 08:09:00+00:00,194.6814,0.4,11.53,47.84626,-54.09684
2024-03-11 08:19:00+00:00,202.5399,0.4,11.53,47.84626,-54.09684
2024-03-11 08:29:00+00:00,209.6781,0.4,11.53,47.84626,-54.09684
2024-03-11 08:39:00+00:00,226.3564,0.4,11.53,47.84626,-54.09684
2024-03-11 08:49:00+00:00,237.9331,0.4,11.53,47.84626,-54.09684
2024-03-11 08:59:00+00:00,242.5731,0.4,11.53,47.84626,-54.09684
2024-03-11 09:09:00+00:00,252.1514,0.4,11.53,47.84626,-54.09684
2024-03-11 09:19:00+00:00,255.5814,0.4,11.53,47.84626,-54.09684
2024-03-11 09:29:00+00:00,262.9048,0.4,11.53,47.84626,-54.09684
2024-03-11 09:39:00+00:00,272.3781,0.4,11.53,47.84626,-54.09684
2024-03-11 09:49:00+00:00,282.2647,0.4,11.53,47.84626,-54.09684
2024-03-11 09:59:00+00:00,288.178,0.4,11.53,47.84626,-54.09684
2024-03-11 10:09:00+00:00,297.7997,0.4,11.53,47.84626,-54.09684
2024-03-11 10:19:00+00:00,313.3096,0.4,11.53,47.84626,-54.09684
2024-03-11 10:29:00+00:00,327.9514,0.4,11.53,47.84626,-54.09684
2024-03-11 10:39:00+00:00,344.1829,0.4,11.53,47.84626,-54.09684
2024-03-11 10:49:00+00:00,350.4629,0.4,11.53,47.84626,-54.09684
2024-03-11 10:59:00+00:00,353.9896,0.4,11.53,47.84626,-54.09684
2024-03-11 11:09:00+00:00,362.7229,0.4,11.53,47.84626,-54.09684
2024-03-11 11:19:00+00:00,371.5646,0.4,11.53,47.84626,-54.09684
2024-03-11 11:29:00+00:00,370.0162,0.4,11.53,47.84626,-54.09684
2024-03-11 11:39:00+00:00,376.1929,0.4,11.53,47.84626,-54.09684
2024-03-11 11:49:00+00:00,387.1763,0.4,11.53,47.84626,-54.09684
2024-03-11 11:59:00+00:00,388.6381,0.4,11.53,47.84626,-54.09684
2024-03-11 12:09:00+00:00,387.8914,0.43,11.53,47.84626,-54.09684
2024-03-11 12:19:01+00:00,398.1312,0.44,11.53,47.84626,-54.09684
2024-03-11 12:29:01+00:00,401.6495,0.46,11.53,47.84626,-54.09684
2024-03-11 12:39:01+00:00,397.6146,0.47,11.53,47.84626,-54.09684
2024-03-11 12:49:01+00:00,400.9896,0.46,11.53,47.84626,-54.09684
2024-03-11 12:59:01+00:00,401.4429,0.46,11.53,47.84626,-54.09684
2024-03-11 13:09:01+00:00,394.0129,0.47,11.53,47.84626,-54.09684
2024-03-11 13:19:01+00:00,391.668,0.47,11.53,47.84626,-54.09684
2024-03-11 13:29:01+00:00,393.7396,0.47,11.53,47.84626,-54.09684
2024-03-11 13:39:01+00:00,392.5562,0.48,11.53,47.84626,-54.09684
2024-03-11 13:49:01+00:00,382.7145,0.48,11.53,47.84626,-54.09684
2024-03-11 13:59:01+00:00,374.8679,0.48,11.53,47.84626,-54.09684
2024-03-11 14:09:01+00:00,368.1813,0.49,11.53,47.84626,-54.09684
2024-03-11 14:19:00+00:00,355.2647,0.49,11.53,47.84626,-54.09684
2024-03-11 14:29:00+00:00,350.213,0.5,11.53,47.84626,-54.09684
2024-03-11 14:39:00+00:00,343.9213,0.5,11.53,47.84626,-54.09684
2024-03-11 14:49:00+00:00,330.4579,0.5,11.53,47.84626,-54.09684
2024-03-11 14:59:00+00:00,319.6313,0.5,11.53,47.84626,-54.09684
2024-03-11 15:09:00+00:00,311.6113,0.49,11.53,47.84626,-54.09684
2024-03-11 15:19:00+00:00,305.3464,0.49,11.53,47.84626,-54.09684
2024-03-11 15:29:00+00:00,289.3564,0.48,11.53,47.84626,-54.09684
2024-03-11 15:39:00+00:00,279.5897,0.48,11.53,47.84626,-54.09684
2024-03-11 15:49:00+00:00,274.4097,0.48,11.53,47.84626,-54.09684
2024-03-11 15:59:00+00:00,260.1381,0.5,11.53,47.84626,-54.09684
2024-03-11 16:09:00+00:00,243.4114,0.49,11.53,47.84626,-54.09684
2024-03-11 16:19:00+00:00,239.5064,0.49,11.53,47.84626,-54.09684
2024-03-11 16:29:00+00:00,229.7831,0.49,11.53,47.84626,-54.09684
2024-03-11 16:39:00+00:00,219.2748,0.5,11.53,47.84626,-54.09684
2024-03-11 16:49:00+00:00,218.3665,0.5,11.53,47.84626,-54.09684
2024-03-11 16:59:00+00:00,222.9448,0.5,11.53,47.84626,-54.09684
2024-03-11 17:09:00+00:00,219.4648,0.5,11.53,47.84626,-54.09684
2024-03-11 17:19:00+00:00,208.0231,0.5,11.53,47.84626,-54.09684
2024-03-11 17:29:00+00:00,199.0614,0.53,11.53,47.84626,-54.09684
2024-03-11 17:39:00+00:00,195.0098,0.56,11.53,47.84626,-54.09684
2024-03-11 17:49:00+00:00,194.0364,0.57,11.53,47.84626,-54.09684
2024-03-11 17:59:00+00:00,184.5631,0.57,11.53,47.84626,-54.09684
2024-03-11 18:09:00+00:00,174.0798,0.58,11.53,47.84626,-54.09684
2024-03-11 18:19:00+00:00,182.5798,0.58,11.53,47.84626,-54.09684
2024-03-11 18:29:00+00:00,189.8398,0.6,11.53,47.84626,-54.09684
2024-03-11 18:39:00+00:00,189.8565,0.67,11.53,47.84626,-54.09684
2024-03-11 18:49:00+00:00,195.3048,0.7,11.53,47.84626,-54.09684
2024-03-11 18:59:00+00:00,204.8714,0.7,11.53,47.84626,-54.09684
2024-03-11 19:09:00+00:00,208.0981,0.7,11.53,47.84626,-54.09684
2024-03-11 19:19:00+00:00,204.9181,0.7,11.53,47.84626,-54.09684
2024-03-11 19:29:00+00:00,205.3032,0.7,11.53,47.84626,-54.09684
2024-03-11 19:39:00+00:00,210.5581,0.7,11.53,47.84626,-54.09684
2024-03-11 19:49:00+00:00,213.0248,0.7,11.53,47.84626,-54.09684
2024-03-11 19:59:00+00:00,213.9698,0.7,11.53,47.84626,-54.09684
2024-03-11 20:09:00+00:00,218.8947,0.7,11.53,47.84626,-54.09684
2024-03-11 20:19:00+00:00,229.0681,0.7,11.53,47.84626,-54.09684
2024-03-11 20:29:00+00:00,229.9298,0.7,11.53,47.84626,-54.09684
2024-03-11 20:39:00+00:00,228.7814,0.72,11.53,47.84626,-54.09684
2024-03-11 20:49:00+00:00,238.1531,0.71,11.53,47.84626,-54.09684
2024-03-11 20:59:00+00:00,252.6614,0.7,11.53,47.84626,-54.09684
2024-03-11 21:09:00+00:00,255.9281,0.7,11.53,47.84626,-54.09684
2024-03-11 21:19:01+00:00,252.6114,0.7,11.53,47.84626,-54.09684
2024-03-11 21:29:01+00:00,257.118,0.7,11.53,47.84626,-54.09684
2024-03-11 21:39:01+00:00,268.5247,0.7,11.53,47.84626,-54.09684
2024-03-11 21:49:01+00:00,271.3665,0.77,11.53,47.84626,-54.09684
2024-03-11 21:59:01+00:00,274.4581,0.78,11.53,47.84626,-54.09684
2024-03-11 22:09:01+00:00,289.4747,0.78,11.53,47.84626,-54.09684
2024-03-11 22:19:00+00:00,300.8614,0.79,11.53,47.84626,-54.09684
2024-03-11 22:29:00+00:00,299.4197,0.79,11.53,47.84626,-54.09684
2024-03-11 22:39:00+00:00,313.4663,0.79,11.53,47.84626,-54.09684
2024-03-11 22:49:00+00:00,343.5597,0.7,11.53,47.84626,-54.09684
2024-03-11 22:59:00+00:00,361.593,0.6,11.53,47.84626,-54.09684
2024-03-11 23:09:00+00:00,355.233,0.5,11.53,47.84626,-54.09684
2024-03-11 23:19:01+00:00,360.5129,0.5,11.53,47.84626,-54.09684
2024-03-11 23:29:01+00:00,383.9862,0.5,11.53,47.84626,-54.09684
2024-03-11 23:39:01+00:00,383.4346,0.5,11.53,47.84626,-54.09684
2024-03-11 23:49:01+00:00,374.5563,0.49,11.53,47.84626,-54.09684
2024-03-11 23:59:01+00:00,384.9113,0.49,11.53,47.84626,-54.09684
